DT_LEITURA;HR_LEITURA;MED-PressaoAtm[hPa];VAL-TempExt[oC];VAL-UmidExt[%UR];VAL-TempInt[oC];VAL-UmidInt[%UR];Dir-Vento[grau];Vel-Vento[m/s];Precipitação[mm/h]
17/08/2026;00:00:00;1011,8;-36,0;0;27,9;80;127;1,6;0,0
17/08/2026;00:05:00;1011,8;-36,0;0;27,9;80;121;1,6;0,0
17/08/2026;00:10:00;1011,8;-36,0;0;27,9;80;134;1,2;0,0
17/08/2026;00:15:00;1011,8;-36,0;0;28,0;80;126;1,2;0,0
17/08/2026;00:20:00;1011,8;-36,0;0;28,0;79;130;1,6;0,0
17/08/2026;00:25:00;1011,7;-36,0;0;28,0;79;138;1,2;0,0
17/08/2026;00:30:00;1011,7;-36,1;0;28,0;79;125;1,0;0,0
17/08/2026;00:35:00;1011,6;-36,1;0;28,0;79;133;1,0;0,0
17/08/2026;00:40:00;1011,5;-36,1;0;28,1;79;135;0,9;0,0
17/08/2026;00:45:00;1011,5;-36,1;0;28,1;79;131;1,3;0,0
17/08/2026;00:50:00;1011,5;-36,1;0;28,1;79;131;1,3;0,0
17/08/2026;00:55:00;1011,5;-36,1;0;28,0;80;133;2,2;0,0
17/08/2026;01:00:00;1011,6;-36,1;0;27,5;83;133;2,2;0,0
17/08/2026;01:05:00;1011,6;-36,1;0;27,1;86;125;2,4;0,0
17/08/2026;01:10:00;1011,4;-36,1;0;26,8;87;126;1,9;0,0
17/08/2026;01:15:00;1011,3;-36,0;0;26,5;88;128;2,0;0,0
17/08/2026;01:20:00;1011,0;-36,0;0;26,4;89;122;1,7;0,0
17/08/2026;01:25:00;1010,9;-35,9;0;26,3;90;132;1,3;0,0
17/08/2026;01:30:00;1010,8;-35,9;0;26,2;90;121;1,7;0,0
17/08/2026;01:35:00;1010,9;-35,9;0;26,2;90;118;1,9;0,0
17/08/2026;01:40:00;1010,9;-35,9;0;26,1;90;122;1,6;0,0
17/08/2026;01:45:00;1010,9;-35,9;0;26,1;90;121;1,4;0,0
17/08/2026;01:50:00;1010,9;-35,8;0;26,0;91;118;1,2;0,0
17/08/2026;01:55:00;1010,9;-35,8;0;26,0;91;122;1,3;0,0
17/08/2026;02:00:00;1010,8;-35,8;0;26,1;91;121;1,6;0,0
17/08/2026;02:05:00;1010,8;-35,8;0;26,2;91;125;1,3;0,0
17/08/2026;02:10:00;1010,8;-35,8;0;26,2;91;110;1,3;0,0
17/08/2026;02:15:00;1010,8;-35,8;0;26,2;91;124;1,2;0,0
17/08/2026;02:20:00;1010,8;-35,8;0;26,3;91;120;1,1;0,0
17/08/2026;02:25:00;1010,8;-35,9;0;26,3;91;125;1,2;0,0
17/08/2026;02:30:00;1010,7;-35,9;0;26,3;91;132;1,2;0,0
17/08/2026;02:35:00;1010,7;-35,9;0;26,3;91;129;1,1;0,0
17/08/2026;02:40:00;1010,7;-35,9;0;26,3;91;126;1,2;0,0
17/08/2026;02:45:00;1010,7;-35,9;0;26,3;91;139;1,3;0,0
17/08/2026;02:50:00;1010,6;-35,9;0;26,3;91;140;1,1;0,0
17/08/2026;02:55:00;1010,6;-35,9;0;26,3;91;126;1,4;0,0
17/08/2026;03:00:00;1010,7;-35,9;0;26,3;90;122;1,4;0,0
17/08/2026;03:05:00;1010,6;-35,9;0;26,3;90;146;1,2;0,0
17/08/2026;03:10:00;1010,6;-36,0;0;26,3;90;131;1,0;0,0
17/08/2026;03:15:00;1010,6;-36,0;0;26,3;91;138;1,1;0,0
17/08/2026;03:20:00;1010,6;-36,0;0;26,3;91;128;1,4;0,0
17/08/2026;03:25:00;1010,6;-36,0;0;26,3;90;124;1,2;0,0
17/08/2026;03:30:00;1010,5;-36,0;0;26,3;90;142;1,1;0,0
17/08/2026;03:35:00;1010,5;-36,0;0;26,3;90;140;0,9;0,0
17/08/2026;03:40:00;1010,5;-36,0;0;26,3;90;133;0,9;0,0
17/08/2026;03:45:00;1010,5;-36,1;0;26,3;90;134;1,4;0,0
17/08/2026;03:50:00;1010,5;-36,1;0;26,3;90;128;1,0;0,0
17/08/2026;03:55:00;1010,5;-36,1;0;26,3;90;135;1,1;0,0
17/08/2026;04:00:00;1010,5;-36,1;0;26,4;90;144;0,9;0,0
17/08/2026;04:05:00;1010,5;-36,1;0;26,4;90;134;1,0;0,0
17/08/2026;04:10:00;1010,6;-36,1;0;26,4;90;137;1,1;0,0
17/08/2026;04:15:00;1010,6;-36,1;0;26,4;90;135;1,1;0,0
17/08/2026;04:20:00;1010,6;-36,1;0;26,4;90;141;0,7;0,0
17/08/2026;04:25:00;1010,6;-36,2;0;26,5;90;144;0,8;0,0
17/08/2026;04:30:00;1010,6;-36,2;0;26,5;90;130;1,1;0,0
17/08/2026;04:35:00;1010,6;-36,2;0;26,5;90;132;0,8;0,0
17/08/2026;04:40:00;1010,6;-36,2;0;26,5;90;130;0,9;0,0
17/08/2026;04:45:00;1010,6;-36,2;0;26,5;90;138;0,8;0,0
17/08/2026;04:50:00;1010,6;-36,2;0;26,5;90;129;1,1;0,0
17/08/2026;04:55:00;1010,6;-36,2;0;26,5;89;128;1,2;0,0
17/08/2026;05:00:00;1010,6;-36,2;0;26,5;89;129;0,9;0,0
17/08/2026;05:05:00;1010,6;-36,2;0;26,5;89;136;1,3;0,0
17/08/2026;05:10:00;1010,7;-36,3;0;26,5;89;139;0,9;0,0
17/08/2026;05:15:00;1010,7;-36,3;0;26,5;89;134;1,1;0,0
17/08/2026;05:20:00;1010,7;-36,3;0;26,6;88;141;1,2;0,0
17/08/2026;05:25:00;1010,8;-36,3;0;26,6;88;132;1,2;0,0
17/08/2026;05:30:00;1010,8;-36,3;0;26,6;88;132;1,0;0,0
17/08/2026;05:35:00;1010,8;-36,3;0;26,6;88;129;1,2;0,0
17/08/2026;05:40:00;1010,8;-36,3;0;26,6;87;127;1,4;0,0
17/08/2026;05:45:00;1010,9;-36,4;0;26,6;87;127;1,1;0,0
17/08/2026;05:50:00;1010,9;-36,4;0;26,6;87;107;1,0;0,0
17/08/2026;05:55:00;1010,9;-36,4;0;26,6;86;146;1,1;0,0
17/08/2026;06:00:00;1011,0;-36,4;0;26,6;86;139;1,2;0,0
17/08/2026;06:05:00;1011,1;-36,4;0;26,6;86;124;1,5;0,0
17/08/2026;06:10:00;1011,1;-36,4;0;26,6;85;133;1,4;0,0
17/08/2026;06:15:00;1011,1;-36,4;0;26,6;85;143;0,9;0,0
17/08/2026;06:20:00;1011,2;-36,4;0;26,6;85;150;1,4;0,0
17/08/2026;06:25:00;1011,2;-36,5;0;26,7;85;152;0,8;0,0
17/08/2026;06:30:00;1011,2;-36,5;0;26,7;85;131;0,8;0,0
17/08/2026;06:35:00;1011,2;-36,5;0;26,7;85;143;0,6;0,0
17/08/2026;06:40:00;1011,4;-36,5;0;26,7;84;126;0,9;0,0
17/08/2026;06:45:00;1011,4;-36,5;0;26,7;84;141;0,8;0,0
17/08/2026;06:50:00;1011,5;-36,5;0;26,7;84;173;0,6;0,0
17/08/2026;06:55:00;1011,5;-36,5;0;26,7;84;164;0,5;0,0
17/08/2026;07:00:00;1011,5;-36,5;0;26,8;84;143;0,7;0,0
17/08/2026;07:05:00;1011,5;-36,5;0;26,8;84;140;0,9;0,0
17/08/2026;07:10:00;1011,5;-36,5;0;26,8;84;134;1,1;0,0
17/08/2026;07:15:00;1011,5;-36,5;0;26,9;84;128;1,3;0,0
17/08/2026;07:20:00;1011,5;-36,5;0;27,0;84;135;1,1;0,0
17/08/2026;07:25:00;1011,6;-36,5;0;27,1;84;158;0,8;0,0
17/08/2026;07:30:00;1011,6;-36,5;0;27,1;84;144;1,1;0,0
17/08/2026;07:35:00;1011,5;-36,5;0;27,2;84;131;1,2;0,0
17/08/2026;07:40:00;1011,6;-36,5;0;27,3;83;133;1,1;0,0
17/08/2026;07:45:00;1011,6;-36,5;0;27,4;83;140;1,3;0,0
17/08/2026;07:50:00;1011,6;-36,5;0;27,5;83;132;1,2;0,0
17/08/2026;07:55:00;1011,7;-36,5;0;27,6;82;128;1,3;0,0
17/08/2026;08:00:00;1011,8;-36,5;0;27,7;82;136;1,2;0,0
17/08/2026;08:05:00;1011,8;-36,5;0;27,8;82;127;1,2;0,0
17/08/2026;08:10:00;1011,8;-36,5;0;27,9;81;135;1,7;0,0
17/08/2026;08:15:00;1011,9;-36,5;0;28,0;80;136;1,7;0,0
17/08/2026;08:20:00;1012,0;-36,5;0;28,1;79;133;1,8;0,0
17/08/2026;08:25:00;1012,1;-36,5;0;28,2;79;124;2,1;0,0
17/08/2026;08:30:00;1012,1;-36,5;0;28,4;78;131;1,5;0,0
17/08/2026;08:35:00;1012,2;-36,4;0;28,6;78;130;1,5;0,0
17/08/2026;08:40:00;1012,3;-36,4;0;28,7;78;135;1,3;0,0
17/08/2026;08:45:00;1012,3;-36,4;0;28,9;78;135;1,9;0,0
17/08/2026;08:50:00;1012,4;-36,3;0;29,1;77;125;1,6;0,0
17/08/2026;08:55:00;1012,5;-36,2;0;29,2;76;135;2,2;0,0
17/08/2026;09:00:00;1012,5;-36,2;0;29,3;75;131;2,0;0,0
17/08/2026;09:05:00;1012,6;-36,1;0;29,4;75;122;2,4;0,0
17/08/2026;09:10:00;1012,6;-36,0;0;29,5;75;137;1,3;0,0
17/08/2026;09:15:00;1012,6;-35,9;0;29,6;75;125;1,8;0,0
17/08/2026;09:20:00;1012,7;-35,8;0;29,7;75;129;1,7;0,0
17/08/2026;09:25:00;1012,7;-35,4;0;30,0;74;130;2,0;0,0
17/08/2026;09:30:00;1012,7;-34,4;0;30,4;71;128;2,7;0,0
17/08/2026;09:35:00;1012,8;-33,4;0;30,6;69;124;2,2;0,0
17/08/2026;09:40:00;1012,8;-31,7;0;31,0;68;134;1,8;0,0
17/08/2026;09:45:00;1012,8;-29,3;0;31,3;67;134;2,2;0,0
17/08/2026;09:50:00;1012,8;-26,7;0;31,5;66;132;2,5;0,0
17/08/2026;09:55:00;1012,8;-24,0;0;31,8;65;123;1,9;0,0
17/08/2026;10:00:00;1012,8;-22,2;0;32,0;65;154;1,8;0,0
17/08/2026;10:05:00;1012,8;-20,9;0;32,3;63;138;2,0;0,0
17/08/2026;10:10:00;1012,8;-20,2;0;32,7;62;135;1,8;0,0
17/08/2026;10:15:00;1012,8;-20,0;0;33,1;60;131;2,5;0,0
17/08/2026;10:20:00;1012,8;-20,0;0;33,3;59;134;2,4;0,0
17/08/2026;10:25:00;1012,8;-20,0;0;33,5;58;133;2,9;0,0
17/08/2026;10:30:00;1012,8;-20,2;0;33,4;58;132;1,6;0,0
17/08/2026;10:35:00;1012,8;-20,2;0;33,5;60;152;1,5;0,0
17/08/2026;10:40:00;1012,8;-20,3;0;33,8;57;133;2,3;0,0
17/08/2026;10:45:00;1012,8;-20,4;0;33,9;57;147;1,6;0,0
17/08/2026;10:50:00;1012,8;-20,5;0;33,8;58;140;1,5;0,0
17/08/2026;10:55:00;1012,8;-20,5;0;33,7;58;138;1,3;0,0
17/08/2026;11:00:00;1012,8;-20,5;0;33,9;57;139;1,9;0,0
17/08/2026;11:05:00;1012,8;-20,6;0;34,1;57;142;1,8;0,0
17/08/2026;11:10:00;1012,8;-20,6;0;34,4;56;156;1,5;0,0
17/08/2026;11:15:00;1012,8;-20,7;0;34,7;55;147;1,4;0,0
17/08/2026;11:20:00;1012,9;-20,6;0;35,0;55;142;1,9;0,0
17/08/2026;11:25:00;1012,9;-20,7;0;35,2;53;130;2,0;0,0
17/08/2026;11:30:00;1012,9;-20,7;0;35,2;52;146;2,0;0,0
17/08/2026;11:35:00;1012,9;-20,7;0;35,2;53;134;2,5;0,0
17/08/2026;11:40:00;1012,8;-20,9;0;35,1;52;144;1,9;0,0
17/08/2026;11:45:00;1012,8;-20,9;0;35,1;54;145;1,7;0,0
17/08/2026;11:50:00;1012,8;-20,8;0;35,0;53;145;1,5;0,0
17/08/2026;11:55:00;1012,7;-20,9;0;34,7;54;143;2,0;0,0
17/08/2026;12:00:00;1012,7;-20,9;0;34,6;55;143;1,9;0,0
17/08/2026;12:05:00;1012,7;-21,0;0;34,8;55;139;2,0;0,0
17/08/2026;12:10:00;1012,6;-20,8;0;34,9;53;130;2,2;0,0
17/08/2026;12:15:00;1012,5;-20,8;0;35,0;54;152;1,6;0,0
17/08/2026;12:20:00;1012,5;-21,0;0;35,2;54;141;1,7;0,0
17/08/2026;12:25:00;1012,5;-21,0;0;35,3;53;143;1,8;0,0
17/08/2026;12:30:00;1012,4;-21,1;0;35,3;54;143;1,5;0,0
17/08/2026;12:35:00;1012,3;-21,1;0;35,6;54;131;1,7;0,0
17/08/2026;12:40:00;1012,2;-21,1;0;35,9;51;140;2,0;0,0
17/08/2026;12:45:00;1012,2;-21,2;0;36,1;51;124;1,0;0,0
17/08/2026;12:50:00;1012,2;-21,2;0;36,4;51;154;1,5;0,0
17/08/2026;12:55:00;1012,1;-21,4;0;36,6;51;161;1,5;0,0
17/08/2026;13:00:00;1012,0;-21,3;0;36,7;50;154;1,4;0,0
17/08/2026;13:05:00;1012,0;-21,4;0;36,8;49;174;1,6;0,0
17/08/2026;13:10:00;1011,9;-21,4;0;36,9;49;189;1,3;0,0
17/08/2026;13:15:00;1011,8;-21,6;0;37,0;49;155;1,7;0,0
17/08/2026;13:20:00;1011,7;-22,0;0;37,1;48;137;1,9;0,0
17/08/2026;13:25:00;1011,6;-22,0;0;37,1;47;135;1,9;0,0
17/08/2026;13:30:00;1011,5;-22,1;0;37,1;48;151;1,5;0,0
17/08/2026;13:35:00;1011,4;-22,0;0;37,2;48;143;1,5;0,0
17/08/2026;13:40:00;1011,3;-21,9;0;37,3;47;148;1,9;0,0
17/08/2026;13:45:00;1011,2;-21,8;0;37,4;48;131;1,3;0,0
17/08/2026;13:50:00;1011,1;-21,8;0;37,4;47;131;1,7;0,0
17/08/2026;13:55:00;1011,0;-21,8;0;37,1;48;155;1,5;0,0
17/08/2026;14:00:00;1011,0;-21,8;0;37,0;49;190;1,0;0,0
17/08/2026;14:05:00;1010,9;-21,8;0;37,2;49;187;1,5;0,0
17/08/2026;14:10:00;1010,8;-21,9;0;37,3;48;164;1,7;0,0
17/08/2026;14:15:00;1010,8;-21,3;0;37,5;48;166;1,1;0,0
17/08/2026;14:20:00;1010,7;-21,7;0;37,7;47;180;1,2;0,0
17/08/2026;14:25:00;1010,7;-21,7;0;37,9;47;189;0,9;0,0
17/08/2026;14:30:00;1010,6;-21,5;0;38,2;46;150;1,9;0,0
17/08/2026;14:35:00;1010,5;-21,4;0;38,3;45;120;0,9;0,0
17/08/2026;14:40:00;1010,4;-21,6;0;38,3;45;152;1,9;0,0
17/08/2026;14:45:00;1010,3;-20,6;0;38,4;46;184;1,3;0,0
17/08/2026;14:50:00;1010,3;-21,0;0;38,4;46;152;1,4;0,0
17/08/2026;14:55:00;1010,3;-21,0;0;38,3;46;149;1,6;0,0
17/08/2026;15:00:00;1010,3;-21,1;0;38,3;46;165;1,0;0,0
17/08/2026;15:05:00;1010,3;-21,0;0;38,5;44;156;1,9;0,0
17/08/2026;15:10:00;1010,4;-21,1;0;38,5;44;151;1,7;0,0
17/08/2026;15:15:00;1010,4;-21,1;0;38,5;44;168;1,8;0,0
17/08/2026;15:20:00;1010,4;-21,1;0;38,5;44;153;1,9;0,0
17/08/2026;15:25:00;1010,3;-21,2;0;38,5;44;147;1,8;0,0
17/08/2026;15:30:00;1010,3;-21,2;0;38,5;45;163;1,9;0,0
17/08/2026;15:35:00;1010,3;-21,2;0;38,5;44;172;1,6;0,0
17/08/2026;15:40:00;1010,3;-21,2;0;38,5;44;164;1,1;0,0
17/08/2026;15:45:00;1010,2;-20,6;0;38,5;44;173;1,0;0,0
17/08/2026;15:50:00;1010,2;-21,1;0;38,5;45;153;1,7;0,0
17/08/2026;15:55:00;1010,1;-21,1;0;38,5;44;141;1,8;0,0
17/08/2026;16:00:00;1010,0;-21,1;0;38,4;44;160;1,2;0,0
17/08/2026;16:05:00;1010,0;-21,2;0;38,2;45;156;1,8;0,0
17/08/2026;16:10:00;1009,9;-21,3;0;37,8;45;173;1,7;0,0
17/08/2026;16:15:00;1009,9;-21,3;0;37,6;47;158;1,4;0,0
17/08/2026;16:20:00;1009,9;-21,4;0;37,4;46;179;1,9;0,0
17/08/2026;16:25:00;1009,9;-21,5;0;36,9;47;161;2,0;0,0
17/08/2026;16:30:00;1010,0;-21,5;0;36,2;49;146;2,2;0,0
17/08/2026;16:35:00;1010,0;-21,5;0;35,7;51;154;2,2;0,0
17/08/2026;16:40:00;1010,1;-21,7;0;35,3;51;144;2,4;0,0
17/08/2026;16:45:00;1010,2;-21,8;0;34,9;51;152;2,2;0,0
17/08/2026;16:50:00;1010,1;-21,8;0;34,6;52;164;1,4;0,0
17/08/2026;16:55:00;1010,1;-21,9;0;34,3;54;148;1,7;0,0
17/08/2026;17:00:00;1010,2;-21,9;0;34,1;55;159;1,5;0,0
17/08/2026;17:05:00;1010,2;-21,8;0;33,9;55;161;2,1;0,0
17/08/2026;17:10:00;1010,3;-21,9;0;33,6;55;145;2,0;0,0
17/08/2026;17:15:00;1010,2;-21,5;0;33,4;55;186;1,0;0,0
17/08/2026;17:20:00;1010,2;-22,0;0;33,2;56;190;1,3;0,0
17/08/2026;17:25:00;1010,3;-22,0;0;33,1;56;171;1,4;0,0
17/08/2026;17:30:00;1010,3;-22,0;0;33,0;56;168;1,6;0,0
17/08/2026;17:35:00;1010,3;-22,1;0;32,8;55;152;1,4;0,0
17/08/2026;17:40:00;1010,4;-22,1;0;32,7;54;151;1,4;0,0
17/08/2026;17:45:00;1010,4;-22,2;0;32,6;55;216;0,9;0,0
17/08/2026;17:50:00;1010,4;-22,2;0;32,5;53;163;1,7;0,0
17/08/2026;17:55:00;1010,5;-22,2;0;32,4;52;144;2,2;0,0
17/08/2026;18:00:00;1010,5;-22,3;0;32,2;52;147;1,8;0,0
17/08/2026;18:05:00;1010,6;-22,4;0;32,0;53;146;2,1;0,0
17/08/2026;18:10:00;1010,6;-22,6;0;31,9;54;161;1,6;0,0
17/08/2026;18:15:00;1010,7;-22,8;0;31,8;55;156;1,5;0,0
17/08/2026;18:20:00;1010,7;-23,1;0;31,6;56;146;1,6;0,0
17/08/2026;18:25:00;1010,7;-23,3;0;31,5;56;148;1,5;0,0
17/08/2026;18:30:00;1010,8;-22,9;0;31,4;57;145;1,5;0,0
17/08/2026;18:35:00;1010,8;-23,6;0;31,3;57;152;1,6;0,0
17/08/2026;18:40:00;1010,8;-23,9;0;31,1;57;158;1,6;0,0
17/08/2026;18:45:00;1010,9;-24,2;0;31,0;58;153;1,5;0,0
17/08/2026;18:50:00;1011,0;-24,6;0;30,9;59;165;1,4;0,0
17/08/2026;18:55:00;1010,9;-24,8;0;30,8;59;168;1,1;0,0
17/08/2026;19:00:00;1011,0;-25,0;0;30,8;59;158;1,1;0,0
17/08/2026;19:05:00;1011,1;-25,2;0;30,8;60;173;1,2;0,0
17/08/2026;19:10:00;1011,1;-25,5;0;30,7;60;151;1,7;0,0
17/08/2026;19:15:00;1011,2;-25,1;0;30,6;60;153;1,4;0,0
17/08/2026;19:20:00;1011,2;-25,9;0;30,6;61;179;0,9;0,0
17/08/2026;19:25:00;1011,3;-26,2;0;30,5;61;185;0,6;0,0
17/08/2026;19:30:00;1011,3;-26,2;0;30,5;61;212;0,7;0,0
17/08/2026;19:35:00;1011,4;-26,4;0;30,5;62;198;0,5;0,0
17/08/2026;19:40:00;1011,4;-26,4;0;30,5;61;175;0,7;0,0
17/08/2026;19:45:00;1011,4;-26,6;0;30,5;62;196;0,6;0,0
17/08/2026;19:50:00;1011,5;-26,8;0;30,4;62;200;0,6;0,0
17/08/2026;19:55:00;1011,6;-26,9;0;30,4;62;182;0,5;0,0
17/08/2026;20:00:00;1011,7;-27,0;0;30,4;63;208;0,6;0,0
17/08/2026;20:05:00;1011,8;-27,2;0;30,4;63;218;0,4;0,0
17/08/2026;20:10:00;1011,9;-27,4;0;30,4;62;335;0,5;0,0
17/08/2026;20:15:00;1012,1;-27,1;0;30,4;63;162;0,5;0,0
17/08/2026;20:20:00;1012,0;-27,7;0;30,3;63;192;0,3;0,0
17/08/2026;20:25:00;1012,1;-27,9;0;30,3;64;215;0,5;0,0
17/08/2026;20:30:00;1012,1;-28,0;0;30,3;64;307;0,5;0,0
17/08/2026;20:35:00;1012,2;-28,2;0;30,2;63;276;0,5;0,0
17/08/2026;20:40:00;1012,3;-28,5;0;30,2;63;4;0,6;0,0
17/08/2026;20:45:00;1012,4;-28,8;0;30,1;64;277;0,5;0,0
17/08/2026;20:50:00;1012,5;-29,1;0;30,1;64;324;0,5;0,0
17/08/2026;20:55:00;1012,5;-29,3;0;30,1;64;239;0,3;0,0
17/08/2026;21:00:00;1012,6;-29,3;0;30,1;65;218;0,4;0,0
17/08/2026;21:05:00;1012,7;-29,4;0;30,1;65;206;0,4;0,0
17/08/2026;21:10:00;1012,7;-29,5;0;30,1;65;180;0,5;0,0
17/08/2026;21:15:00;1012,7;-29,6;0;30,0;66;242;0,5;0,0
17/08/2026;21:20:00;1012,8;-29,7;0;30,0;65;193;0,6;0,0
17/08/2026;21:25:00;1012,8;-29,8;0;30,0;66;218;0,7;0,0
17/08/2026;21:30:00;1012,8;-30,1;0;29,9;66;215;0,5;0,0
17/08/2026;21:35:00;1012,8;-30,3;0;29,8;67;153;1,0;0,0
17/08/2026;21:40:00;1012,8;-30,7;0;29,8;68;150;1,0;0,0
17/08/2026;21:45:00;1012,8;-31,0;0;29,7;68;153;1,4;0,0
17/08/2026;21:50:00;1012,9;-31,3;0;29,6;69;161;1,2;0,0
17/08/2026;21:55:00;1012,9;-31,6;0;29,5;69;164;1,1;0,0
17/08/2026;22:00:00;1012,9;-31,8;0;29,5;70;169;1,0;0,0
17/08/2026;22:05:00;1013,0;-32,2;0;29,4;70;156;1,1;0,0
17/08/2026;22:10:00;1013,1;-32,5;0;29,3;71;158;1,3;0,0
17/08/2026;22:15:00;1013,2;-32,8;0;29,3;71;148;1,2;0,0
17/08/2026;22:20:00;1013,2;-33,0;0;29,2;71;153;0,9;0,0
17/08/2026;22:25:00;1013,2;-33,1;0;29,2;71;152;1,2;0,0
17/08/2026;22:30:00;1013,3;-33,3;0;29,2;71;149;1,1;0,0
17/08/2026;22:35:00;1013,3;-33,4;0;29,2;71;156;1,2;0,0
17/08/2026;22:40:00;1013,3;-33,5;0;29,1;71;151;1,1;0,0
17/08/2026;22:45:00;1013,3;-33,6;0;29,1;72;158;1,1;0,0
17/08/2026;22:50:00;1013,3;-33,7;0;29,1;72;159;0,9;0,0
17/08/2026;22:55:00;1013,3;-33,8;0;29,1;72;142;1,3;0,0
17/08/2026;23:00:00;1013,3;-33,8;0;29,1;71;140;1,3;0,0
17/08/2026;23:05:00;1013,3;-33,9;0;29,1;71;159;1,1;0,0
17/08/2026;23:10:00;1013,3;-34,0;0;29,0;71;146;1,0;0,0
17/08/2026;23:15:00;1013,2;-34,1;0;29,0;71;155;1,0;0,0
17/08/2026;23:20:00;1013,2;-34,1;0;29,0;72;170;1,0;0,0
17/08/2026;23:25:00;1013,2;-34,2;0;29,0;72;165;1,1;0,0
17/08/2026;23:30:00;1013,3;-34,3;0;28,9;72;157;1,1;0,0
17/08/2026;23:35:00;1013,2;-34,3;0;28,9;72;172;0,9;0,0
17/08/2026;23:40:00;1013,2;-34,4;0;28,9;72;169;1,0;0,0
17/08/2026;23:45:00;1013,3;-34,4;0;28,9;72;165;1,0;0,0
17/08/2026;23:50:00;1013,3;-34,5;0;28,9;72;184;0,9;0,0
17/08/2026;23:55:00;1013,3;-34,5;0;28,9;73;182;0,7;0,0
